ATLAS 5 CENTAUR DEB, 46643

Orbit data source: Space-Track

ATLAS 5 CENTAUR DEB, 46643 is space debris in HEO originally from a launch on Wed, 17 Sep 2014 UTC launched from the Air Force Eastern Test Range (AFETR). Debris objects in space refer to the collection of defunct objects orbiting the Earth. Examples of debris include non-operational satellites, rocket bodies, and fragments generated from explosions, collisions, or faulty payload assembly.

Loading next visibility...
ATLAS 5 CENTAUR DEB details
Identifier
46643, 2014-055CT
Orbit
HEO
Last TLE update20 hours ago
Origin
Flag of USULA (US)
ManufacturerUnknown
MissionSpacecraft
Bus & MotorUnknown
MassUnknown
Launch date (UTC)
2014-09-17 (10 years ago)
Launch vehicleUnknown
Launch site
Air Force Eastern Test Range (AFETR)
Object type
Payload
Rocket body
Debris
Shape & HBRUnknown
Radar Cross SectionRCS unknown

Expand to show TLE details & history

TLE from 20 hours ago
0 ATLAS 5 CENTAUR DEB
1 46643U 14055CT  24361.04033453 -.00000021  00000-0  00000+0 0  9999
2 46643  19.7657 202.2792 4965792  68.1545 336.6016  1.85063186 28514
Epoch: 2024-12-26T00:58Z
Definitive object data (Epoch: 2024-12-26T00:58:04.903Z)
Latitude-0.00004°
Longitude92.77462°
Altitude11,409.119 km
Speed5.531 km/s
True Right ascension13h 29m 16s
True Declination0° 00' 00"
Sunlit
Object was in daylight at TLE epoch
Visualization TLE readout
Latitude-17.53443°
Longitude-25.77343°
Altitude35,413.171 km
Speed2.203 km/s
Apparent Right ascension05h 51m 04s
Apparent Declination-20° 49' 03"
Sunlit
Object is in daylight
Visualization observer readout
Local Sidereal Time20:09:13
Azimuth67.316° ENE
Elevation-54.946°
Doppler factor1
Orbital elements
Apogee altitude35,564.202 km
Perigee altitude7,730.469 km
Semi-major axis28,025.472 km
Eccentricity0.4965792
Inclination19.7657°
RAAN202.2792°
Arg. of periapsis68.1545°
True anomaly292.05709°
Mean anomaly336.6016°
Eccentric anomaly317.31051°
Mean motion0.46261 °/min
BSTARUnknown
Orbital period778.2 mins
Loading maneuver chart data...

ATLAS 5 CENTAUR DEB Visibility forecast

Observer location: undefined°, undefined

Span
Click to sort rows by Start time (UTC) header in descending order
Start Az.
Max El. time (UTC)
Max El. Az.
Max El.
End time (UTC)
End Az.
183 mins2024-12-27 05:17:20.320Z251.983° W2024-12-27 06:21:20.320Z236.148° WSW14.276°2024-12-27 08:20:20.320Z230.512° WSW
106 mins2024-12-27 15:21:20.320Z230.047° WSW2024-12-27 16:29:20.320Z161.3° S35.348°2024-12-27 17:07:20.320Z93.7° ESE
|